Location: Lake Hudson State Recreational Area
(41.8372°N, 84.2445°W)
Time: 23:06:22
(UTC-05:00)

Tiangong 1 - Visible Passes

Search period start: 16 December 2017 00:00
Search period end: 26 December 2017 00:00
Orbit: 274 x 301 km, 42.8° (Epoch: 16 December)

Date Brightness Start Highest point End Pass type
(mag) Time Alt. Az. Time Alt. Az. Time Alt. Az.
18 Dec 3.6 07:08:27 10° SSW 07:10:07 16° SSE 07:11:47 10° ESE visible
19 Dec 2.6 07:11:35 10° SW 07:13:47 27° SSE 07:16:03 10° E visible
20 Dec 1.5 07:15:01 10° WSW 07:17:27 47° SSE 07:19:54 10° E visible
21 Dec 3.8 05:47:41 14° ESE 05:47:41 14° ESE 05:48:27 10° ESE visible
21 Dec 0.6 07:18:33 10° WSW 07:21:03 76° SSE 07:23:35 10° E visible
22 Dec 3.6 05:51:29 17° ESE 05:51:29 17° ESE 05:52:22 10° E visible
22 Dec 0.4 07:22:04 10° W 07:24:34 79° N 07:27:07 10° E visible
23 Dec 3.4 05:55:02 19° E 05:55:02 19° E 05:55:56 10° E visible
23 Dec 0.5 07:25:32 10° W 07:28:02 67° N 07:30:33 10° E visible
24 Dec 3.3 05:58:22 20° E 05:58:22 20° E 05:59:18 10° E visible
24 Dec 0.5 07:28:54 10° W 07:31:23 68° N 07:33:54 10° E visible
25 Dec 3.1 06:01:31 21° ENE 06:01:31 21° ENE 06:02:32 10° E visible
